| time (UTC) | temp F | wind direction | speed MPH | gust MPH | rain 1hr in | rain 24hr in | rain mn in | humidity % | barometer mb |
| 20260906214516 | 81 | 110 | 1.0 | 4.0 | 0.00 | 0.52 | 0.00 | 54 | 1014.4 |
| 20260906213749 | 82 | 39 | 1.0 | 3.0 | 0.00 | 0.52 | 0.00 | 54 | 1014.3 |
| 20260906213503 | 82 | 108 | 1.0 | 3.0 | 0.00 | 0.52 | 0.00 | 52 | 1014.3 |
| 20260906213000 | 82 | 73 | 0.0 | 1.0 | 0.00 | 0.52 | 0.00 | 56 | 1014.3 |
| 20260906212231 | 82 | 85 | 0.0 | 2.0 | 0.00 | 0.52 | 0.00 | 56 | 1014.4 |
| 20260906211724 | 82 | 327 | 1.0 | 4.0 | 0.00 | 0.52 | 0.00 | 53 | 1014.5 |
| 20260906211218 | 82 | 49 | 1.0 | 4.0 | 0.00 | 0.52 | 0.00 | 53 | 1014.4 |
| 20260906210933 | 82 | 61 | 1.0 | 4.0 | 0.00 | 0.52 | 0.00 | 53 | 1014.4 |
| 20260906210206 | 82 | 57 | 0.0 | 4.0 | 0.00 | 0.52 | 0.00 | 54 | 1014.4 |
| 20260906205706 | 82 | 275 | 1.0 | 2.0 | 0.00 | 0.52 | 0.00 | 52 | 1014.4 |
| 20260906205203 | 82 | 107 | 1.0 | 4.0 | 0.00 | 0.52 | 0.00 | 54 | 1014.5 |
| 20260906204702 | 82 | 322 | 1.0 | 4.0 | 0.00 | 0.52 | 0.00 | 51 | 1014.4 |
| 20260906204202 | 82 | 98 | 0.0 | 3.0 | 0.00 | 0.52 | 0.00 | 51 | 1014.4 |
| 20260906203702 | 83 | 41 | 0.0 | 1.0 | 0.00 | 0.52 | 0.00 | 54 | 1014.5 |
| 20260906203204 | 83 | 41 | 1.0 | 4.0 | 0.00 | 0.52 | 0.00 | 54 | 1014.5 |
| 20260906202928 | 82 | 71 | 1.0 | 4.0 | 0.00 | 0.52 | 0.00 | 52 | 1014.4 |
| 20260906202421 | 82 | 77 | 0.0 | 1.0 | 0.00 | 0.52 | 0.00 | 53 | 1014.4 |
| 20260906201656 | 82 | 126 | 0.0 | 2.0 | 0.00 | 0.52 | 0.00 | 53 | 1014.4 |
| 20260906201154 | 82 | 126 | 1.0 | 2.0 | 0.00 | 0.52 | 0.00 | 54 | 1014.4 |
| 20260906200652 | 84 | 128 | 1.0 | 2.0 | 0.00 | 0.52 | 0.00 | 51 | 1014.4 |
| 20260906200159 | 84 | 225 | 1.0 | 3.0 | 0.00 | 0.52 | 0.00 | 49 | 1014.2 |
| 20260906195653 | 83 | 107 | 1.0 | 4.0 | 0.00 | 0.52 | 0.00 | 48 | 1014.2 |
| 20260906195150 | 83 | 107 | 1.0 | 4.0 | 0.00 | 0.52 | 0.00 | 48 | 1014.2 |
| 20260906194650 | 86 | 50 | 1.0 | 4.0 | 0.00 | 0.52 | 0.00 | 45 | 1014.3 |
| 20260906194151 | 85 | 100 | 1.0 | 4.0 | 0.00 | 0.52 | 0.00 | 50 | 1014.4 |
| 20260906194128 | 86 | 286 | 1.0 | 4.0 | 0.00 | 0.52 | 0.00 | 50 | 1014.5 |
| 20260906193151 | 84 | 123 | 2.0 | 4.0 | 0.00 | 0.52 | 0.00 | 52 | 1014.4 |
| 20260906192652 | 85 | 67 | 2.0 | 4.0 | 0.00 | 0.52 | 0.00 | 48 | 1014.4 |
| 20260906192145 | 87 | 137 | 1.0 | 4.0 | 0.00 | 0.52 | 0.00 | 49 | 1014.3 |
| 20260906191639 | 86 | 0 | 1.0 | 3.0 | 0.00 | 0.52 | 0.00 | 48 | 1014.3 |
| 20260906191133 | 85 | 79 | 2.0 | 6.0 | 0.00 | 0.52 | 0.00 | 49 | 1014.4 |
| 20260906190849 | 86 | 316 | 1.0 | 6.0 | 0.00 | 0.52 | 0.00 | 46 | 1014.4 |
| 20260906190122 | 85 | 355 | 1.0 | 5.0 | 0.00 | 0.52 | 0.00 | 51 | 1014.5 |
| 20260906185615 | 86 | 43 | 2.0 | 5.0 | 0.00 | 0.52 | 0.00 | 46 | 1014.6 |
| 20260906185109 | 87 | 51 | 2.0 | 6.0 | 0.00 | 0.52 | 0.00 | 49 | 1014.7 |
| 20260906184603 | 84 | 282 | 2.0 | 6.0 | 0.00 | 0.52 | 0.00 | 53 | 1014.7 |
| 20260906184325 | 84 | 107 | 1.0 | 6.0 | 0.00 | 0.52 | 0.00 | 49 | 1014.7 |
| 20260906183551 | 85 | 103 | 1.0 | 7.0 | 0.00 | 0.52 | 0.00 | 49 | 1014.7 |
| 20260906183048 | 83 | 70 | 1.0 | 7.0 | 0.00 | 0.52 | 0.00 | 52 | 1014.9 |
| 20260906183020 | 85 | 106 | 1.0 | 7.0 | 0.00 | 0.52 | 0.00 | 49 | 1014.8 |
| 20260906182033 | 86 | 131 | 2.0 | 6.0 | 0.00 | 0.52 | 0.00 | 48 | 1014.7 |
| 20260906181527 | 86 | 150 | 2.0 | 6.0 | 0.00 | 0.52 | 0.00 | 50 | 1014.8 |
| 20260906181025 | 83 | 100 | 2.0 | 9.0 | 0.00 | 0.52 | 0.00 | 51 | 1014.8 |
| 20260906180511 | 84 | 312 | 2.0 | 9.0 | 0.00 | 0.52 | 0.00 | 50 | 1014.8 |
| 20260906180006 | 84 | 22 | 2.0 | 5.0 | 0.00 | 0.52 | 0.00 | 51 | 1014.9 |
| 20260906175714 | 84 | 184 | 1.0 | 6.0 | 0.00 | 0.52 | 0.00 | 48 | 1014.9 |
| 20260906174953 | 85 | 291 | 2.0 | 8.0 | 0.00 | 0.52 | 0.00 | 53 | 1014.9 |
| 20260906174448 | 84 | 286 | 2.0 | 8.0 | 0.00 | 0.52 | 0.00 | 50 | 1014.9 |
| 20260906173949 | 84 | 284 | 2.0 | 6.0 | 0.00 | 0.52 | 0.00 | 55 | 1014.9 |
| 20260906173445 | 83 | 280 | 2.0 | 7.0 | 0.00 | 0.52 | 0.00 | 57 | 1014.9 |
| 20260906172946 | 84 | 112 | 2.0 | 7.0 | 0.00 | 0.52 | 0.00 | 53 | 1015.0 |
| 20260906172445 | 83 | 61 | 2.0 | 7.0 | 0.00 | 0.53 | 0.00 | 53 | 1015.0 |
| 20260906171946 | 83 | 109 | 2.0 | 7.0 | 0.00 | 0.53 | 0.00 | 56 | 1015.0 |
| 20260906171445 | 83 | 149 | 3.0 | 7.0 | 0.00 | 0.54 | 0.00 | 54 | 1015.2 |
| 20260906170947 | 83 | 347 | 2.0 | 6.0 | 0.00 | 0.54 | 0.00 | 55 | 1015.3 |
| 20260906170446 | 82 | 51 | 2.0 | 8.0 | 0.00 | 0.55 | 0.00 | 59 | 1015.2 |
| 20260906165946 | 83 | 99 | 2.0 | 8.0 | 0.00 | 0.56 | 0.00 | 60 | 1015.3 |
| 20260906165446 | 82 | 84 | 2.0 | 4.0 | 0.00 | 0.56 | 0.00 | 58 | 1015.3 |
| 20260906165210 | 81 | 123 | 2.0 | 8.0 | 0.00 | 0.57 | 0.00 | 57 | 1015.3 |
| 20260906164442 | 81 | 88 | 2.0 | 8.0 | 0.00 | 0.58 | 0.00 | 55 | 1015.4 |
| 20260906163942 | 82 | 58 | 2.0 | 7.0 | 0.00 | 0.59 | 0.00 | 56 | 1015.4 |
| 20260906163443 | 80 | 41 | 1.0 | 4.0 | 0.00 | 0.60 | 0.00 | 58 | 1015.5 |
| 20260906162942 | 80 | 290 | 2.0 | 4.0 | 0.00 | 0.60 | 0.00 | 59 | 1015.4 |
| 20260906162919 | 81 | 94 | 1.0 | 6.0 | 0.00 | 0.60 | 0.00 | 63 | 1015.5 |
| 20260906162200 | 80 | 41 | 2.0 | 8.0 | 0.00 | 0.61 | 0.00 | 60 | 1015.5 |
| 20260906161444 | 80 | 298 | 2.0 | 8.0 | 0.00 | 0.61 | 0.00 | 62 | 1015.5 |
| 20260906160941 | 79 | 244 | 1.0 | 4.0 | 0.00 | 0.61 | 0.00 | 62 | 1015.6 |
| 20260906160443 | 79 | 46 | 0.0 | 3.0 | 0.00 | 0.61 | 0.00 | 62 | 1015.7 |
| 20260906155942 | 79 | 58 | 0.0 | 3.0 | 0.00 | 0.61 | 0.00 | 66 | 1015.7 |
| 20260906155444 | 78 | 232 | 0.0 | 3.0 | 0.00 | 0.61 | 0.00 | 69 | 1015.7 |
| 20260906154944 | 78 | 121 | 1.0 | 2.0 | 0.00 | 0.61 | 0.00 | 67 | 1015.6 |
| 20260906154444 | 77 | 65 | 1.0 | 2.0 | 0.00 | 0.61 | 0.00 | 69 | 1015.6 |
| 20260906153943 | 77 | 92 | 1.0 | 4.0 | 0.00 | 0.61 | 0.00 | 71 | 1015.7 |
| 20260906153442 | 76 | 75 | 1.0 | 4.0 | 0.00 | 0.61 | 0.00 | 73 | 1015.6 |
| 20260906152943 | 75 | 50 | 2.0 | 4.0 | 0.00 | 0.61 | 0.00 | 73 | 1015.6 |
| 20260906152440 | 75 | 332 | 1.0 | 5.0 | 0.00 | 0.61 | 0.00 | 74 | 1015.4 |
| 20260906152212 | 73 | 71 | 2.0 | 5.0 | 0.00 | 0.61 | 0.00 | 76 | 1015.3 |
| 20260906151705 | 74 | 108 | 1.0 | 5.0 | 0.00 | 0.61 | 0.00 | 77 | 1015.3 |
| 20260906150935 | 74 | 128 | 1.0 | 4.0 | 0.00 | 0.61 | 0.00 | 78 | 1015.4 |
| 20260906150427 | 74 | 5 | 1.0 | 7.0 | 0.00 | 0.61 | 0.00 | 79 | 1015.4 |
| 20260906145923 | 73 | 43 | 1.0 | 7.0 | 0.00 | 0.61 | 0.00 | 82 | 1015.4 |
| 20260906145416 | 72 | 300 | 2.0 | 4.0 | 0.00 | 0.61 | 0.00 | 85 | 1015.4 |
| 20260906144910 | 71 | 54 | 2.0 | 5.0 | 0.00 | 0.61 | 0.00 | 84 | 1015.4 |
| 20260906144409 | 71 | 133 | 1.0 | 5.0 | 0.00 | 0.61 | 0.00 | 84 | 1015.4 |
| 20260906143906 | 71 | 54 | 1.0 | 4.0 | 0.00 | 0.61 | 0.00 | 85 | 1015.4 |
| 20260906143407 | 71 | 88 | 1.0 | 4.0 | 0.00 | 0.61 | 0.00 | 84 | 1015.4 |
| 20260906142907 | 70 | 343 | 1.0 | 3.0 | 0.00 | 0.61 | 0.00 | 87 | 1015.4 |
| 20260906142844 | 69 | 289 | 1.0 | 3.0 | 0.00 | 0.61 | 0.00 | 90 | 1015.4 |
| 20260906142135 | 68 | 44 | 2.0 | 6.0 | 0.00 | 0.61 | 0.00 | 94 | 1015.3 |
| 20260906141407 | 68 | 73 | 2.0 | 6.0 | 0.00 | 0.61 | 0.00 | 94 | 1015.3 |
| 20260906140906 | 68 | 98 | 1.0 | 4.0 | 0.00 | 0.61 | 0.00 | 95 | 1015.3 |
| 20260906140403 | 67 | 78 | 1.0 | 4.0 | 0.00 | 0.61 | 0.00 | 95 | 1015.3 |
| 20260906135903 | 67 | 55 | 1.0 | 4.0 | 0.00 | 0.61 | 0.00 | 95 | 1015.3 |
| 20260906135401 | 67 | 90 | 1.0 | 3.0 | 0.00 | 0.61 | 0.00 | 96 | 1015.2 |
| 20260906134900 | 66 | 66 | 1.0 | 3.0 | 0.00 | 0.61 | 0.00 | 96 | 1015.2 |
| 20260906134359 | 66 | 322 | 1.0 | 4.0 | 0.00 | 0.61 | 0.00 | 96 | 1015.2 |
| 20260906133859 | 66 | 82 | 1.0 | 4.0 | 0.00 | 0.61 | 0.00 | 96 | 1015.2 |
| 20260906133401 | 66 | 103 | 1.0 | 4.0 | 0.00 | 0.61 | 0.00 | 96 | 1015.3 |
| 20260906132900 | 65 | 146 | 0.0 | 4.0 | 0.00 | 0.61 | 0.00 | 96 | 1015.2 |
| 20260906132401 | 65 | 22 | 0.0 | 1.0 | 0.00 | 0.61 | 0.00 | 96 | 1015.2 |
| 20260906131855 | 65 | 22 | 1.0 | 3.0 | 0.00 | 0.61 | 0.00 | 96 | 1015.1 |
| 20260906131608 | 65 | 70 | 0.0 | 3.0 | 0.00 | 0.61 | 0.00 | 96 | 1015.1 |
| 20260906130841 | 65 | 108 | 1.0 | 4.0 | 0.00 | 0.61 | 0.00 | 96 | 1015.0 |
| 20260906130336 | 65 | 110 | 1.0 | 4.0 | 0.00 | 0.61 | 0.00 | 96 | 1015.0 |
| 20260906125829 | 65 | 56 | 0.0 | 2.0 | 0.00 | 0.61 | 0.00 | 96 | 1015.0 |
| 20260906125324 | 64 | 61 | 1.0 | 3.0 | 0.00 | 0.61 | 0.00 | 96 | 1015.0 |
| 20260906124818 | 64 | 92 | 1.0 | 3.0 | 0.00 | 0.61 | 0.00 | 96 | 1014.9 |
| 20260906124312 | 64 | 83 | 0.0 | 5.0 | 0.00 | 0.61 | 0.00 | 96 | 1015.0 |
| 20260906123805 | 64 | 80 | 1.0 | 5.0 | 0.00 | 0.61 | 0.00 | 96 | 1015.0 |
| 20260906123300 | 64 | 86 | 1.0 | 3.0 | 0.00 | 0.61 | 0.00 | 96 | 1015.0 |
| 20260906122753 | 64 | 100 | 0.0 | 3.0 | 0.00 | 0.61 | 0.00 | 96 | 1015.0 |
| 20260906122731 | 64 | 71 | 0.0 | 2.0 | 0.00 | 0.61 | 0.00 | 96 | 1015.0 |
| 20260906121741 | 64 | 35 | 0.0 | 3.0 | 0.00 | 0.61 | 0.00 | 96 | 1014.9 |
| 20260906121729 | 63 | 344 | 0.0 | 2.0 | 0.00 | 0.61 | 0.00 | 96 | 1014.8 |
| 20260906120729 | 63 | 42 | 0.0 | 2.0 | 0.00 | 0.61 | 0.00 | 96 | 1014.7 |
| 20260906120223 | 63 | 98 | 0.0 | 0.0 | 0.00 | 0.61 | 0.00 | 96 | 1014.7 |
| 20260906115718 | 63 | 98 | 0.0 | 1.0 | 0.00 | 0.61 | 0.00 | 96 | 1014.7 |
| 20260906115212 | 63 | 98 | 0.0 | 1.0 | 0.00 | 0.61 | 0.00 | 96 | 1014.7 |
| 20260906114705 | 63 | 58 | 0.0 | 0.0 | 0.00 | 0.61 | 0.00 | 95 | 1014.5 |
| 20260906114200 | 63 | 58 | 0.0 | 0.0 | 0.00 | 0.61 | 0.00 | 95 | 1014.4 |
| 20260906113654 | 63 | 58 | 0.0 | 0.0 | 0.00 | 0.61 | 0.00 | 95 | 1014.5 |
| 20260906113147 | 63 | 58 | 0.0 | 0.0 | 0.00 | 0.61 | 0.00 | 95 | 1014.5 |
| 20260906112642 | 63 | 58 | 0.0 | 0.0 | 0.00 | 0.61 | 0.00 | 95 | 1014.4 |
| 20260906112135 | 63 | 58 | 0.0 | 0.0 | 0.00 | 0.61 | 0.00 | 95 | 1014.4 |
| 20260906111629 | 63 | 58 | 0.0 | 0.0 | 0.00 | 0.61 | 0.00 | 95 | 1014.2 |
| 20260906111123 | 63 | 58 | 0.0 | 0.0 | 0.00 | 0.61 | 0.00 | 95 | 1014.1 |
| 20260906110617 | 63 | 58 | 0.0 | 0.0 | 0.00 | 0.61 | 0.00 | 95 | 1014.1 |
| 20260906110335 | 63 | 58 | 0.0 | 0.0 | 0.00 | 0.61 | 0.00 | 95 | 1014.0 |
| 20260906105605 | 64 | 58 | 0.0 | 0.0 | 0.00 | 0.61 | 0.00 | 95 | 1014.1 |
| 20260906105100 | 64 | 58 | 0.0 | 0.0 | 0.00 | 0.61 | 0.00 | 95 | 1014.0 |
| 20260906104553 | 64 | 58 | 0.0 | 0.0 | 0.00 | 0.61 | 0.00 | 95 | 1014.0 |
| 20260906104047 | 64 | 58 | 0.0 | 0.0 | 0.00 | 0.61 | 0.00 | 95 | 1013.8 |
| 20260906103541 | 64 | 58 | 0.0 | 0.0 | 0.00 | 0.61 | 0.00 | 95 | 1013.8 |
| 20260906103035 | 64 | 58 | 0.0 | 0.0 | 0.00 | 0.61 | 0.00 | 95 | 1013.7 |
| 20260906102529 | 64 | 58 | 0.0 | 0.0 | 0.00 | 0.61 | 0.00 | 95 | 1013.7 |
| 20260906102023 | 64 | 58 | 0.0 | 0.0 | 0.00 | 0.61 | 0.00 | 95 | 1013.7 |
| 20260906101518 | 64 | 58 | 0.0 | 0.0 | 0.00 | 0.61 | 0.00 | 95 | 1013.7 |
| 20260906101011 | 64 | 58 | 0.0 | 0.0 | 0.00 | 0.61 | 0.00 | 95 | 1013.6 |
| 20260906100702 | 64 | 58 | 0.0 | 0.0 | 0.00 | 0.61 | 0.00 | 95 | 1013.4 |
| 20260906100554 | 64 | 58 | 0.0 | 0.0 | 0.00 | 0.61 | 0.00 | 95 | 1013.5 |
| 20260906095452 | 64 | 58 | 0.0 | 0.0 | 0.00 | 0.61 | 0.00 | 95 | 1013.4 |
| 20260906094947 | 64 | 58 | 0.0 | 0.0 | 0.00 | 0.61 | 0.00 | 95 | 1013.4 |
| 20260906094441 | 65 | 58 | 0.0 | 0.0 | 0.00 | 0.61 | 0.00 | 95 | 1013.5 |
| 20260906093935 | 65 | 58 | 0.0 | 0.0 | 0.00 | 0.61 | 0.00 | 95 | 1013.4 |
| 20260906093429 | 65 | 58 | 0.0 | 0.0 | 0.00 | 0.61 | 0.00 | 95 | 1013.2 |
| 20260906092923 | 65 | 58 | 0.0 | 0.0 | 0.00 | 0.61 | 0.00 | 95 | 1013.1 |
| 20260906092417 | 65 | 58 | 0.0 | 0.0 | 0.00 | 0.61 | 0.00 | 95 | 1013.2 |
| 20260906091911 | 65 | 58 | 0.0 | 0.0 | 0.00 | 0.61 | 0.00 | 95 | 1013.2 |
| 20260906091409 | 65 | 58 | 0.0 | 0.0 | 0.00 | 0.61 | 0.00 | 95 | 1013.2 |
| 20260906090859 | 65 | 58 | 0.0 | 0.0 | 0.00 | 0.61 | 0.00 | 95 | 1013.1 |
| 20260906090354 | 65 | 58 | 0.0 | 0.0 | 0.00 | 0.61 | 0.00 | 95 | 1012.8 |
| 20260906085847 | 65 | 58 | 0.0 | 0.0 | 0.00 | 0.61 | 0.00 | 95 | 1012.8 |
| 20260906085341 | 66 | 58 | 0.0 | 0.0 | 0.00 | 0.61 | 0.00 | 95 | 1012.7 |
| 20260906084836 | 66 | 58 | 0.0 | 0.0 | 0.00 | 0.61 | 0.00 | 95 | 1012.7 |
| 20260906084329 | 66 | 58 | 0.0 | 0.0 | 0.00 | 0.61 | 0.00 | 95 | 1012.8 |
| 20260906083823 | 66 | 58 | 0.0 | 0.0 | 0.00 | 0.61 | 0.00 | 95 | 1012.7 |
| 20260906083318 | 66 | 58 | 0.0 | 0.0 | 0.00 | 0.61 | 0.00 | 95 | 1012.7 |
| 20260906082811 | 66 | 58 | 0.0 | 0.0 | 0.00 | 0.61 | 0.00 | 95 | 1012.6 |
| 20260906082306 | 66 | 58 | 0.0 | 0.0 | 0.00 | 0.61 | 0.00 | 95 | 1012.5 |
| 20260906081759 | 66 | 58 | 0.0 | 0.0 | 0.00 | 0.61 | 0.00 | 95 | 1012.4 |
| 20260906081525 | 66 | 58 | 0.0 | 0.0 | 0.00 | 0.61 | 0.00 | 95 | 1012.4 |
| 20260906080752 | 67 | 58 | 0.0 | 0.0 | 0.00 | 0.61 | 0.00 | 95 | 1012.4 |
| 20260906080252 | 67 | 58 | 0.0 | 0.0 | 0.00 | 0.61 | 0.00 | 95 | 1012.4 |
| 20260906075751 | 67 | 58 | 0.0 | 1.0 | 0.00 | 0.61 | 0.00 | 95 | 1012.4 |
| 20260906075513 | 67 | 58 | 0.0 | 1.0 | 0.00 | 0.61 | 0.00 | 95 | 1012.4 |
| 20260906074747 | 67 | 58 | 0.0 | 1.0 | 0.00 | 0.61 | 0.00 | 95 | 1012.4 |
| 20260906074245 | 67 | 58 | 0.0 | 1.0 | 0.00 | 0.61 | 0.00 | 95 | 1012.3 |
| 20260906073743 | 67 | 58 | 0.0 | 1.0 | 0.00 | 0.61 | 0.00 | 95 | 1012.3 |
| 20260906073242 | 67 | 58 | 0.0 | 0.0 | 0.00 | 0.61 | 0.00 | 95 | 1012.4 |
| 20260906072741 | 67 | 58 | 0.0 | 0.0 | 0.00 | 0.61 | 0.00 | 95 | 1012.3 |
| 20260906072503 | 67 | 58 | 0.0 | 1.0 | 0.00 | 0.61 | 0.00 | 95 | 1012.2 |
| 20260906071741 | 67 | 58 | 0.0 | 1.0 | 0.00 | 0.61 | 0.00 | 95 | 1012.2 |
| 20260906071503 | 67 | 58 | 0.0 | 0.0 | 0.00 | 0.61 | 0.00 | 95 | 1012.3 |
| 20260906070736 | 67 | 58 | 0.0 | 0.0 | 0.00 | 0.61 | 0.00 | 95 | 1012.3 |
| 20260906070234 | 67 | 58 | 0.0 | 0.0 | 0.00 | 0.61 | 0.00 | 95 | 1012.4 |
| 20260906065733 | 67 | 58 | 0.0 | 0.0 | 0.00 | 0.61 | 0.00 | 95 | 1012.4 |
| 20260906065235 | 67 | 58 | 0.0 | 0.0 | 0.00 | 0.61 | 0.00 | 95 | 1012.4 |
| 20260906064730 | 67 | 58 | 0.0 | 0.0 | 0.00 | 0.61 | 0.00 | 95 | 1012.4 |
| 20260906064228 | 67 | 58 | 0.0 | 0.0 | 0.00 | 0.62 | 0.00 | 95 | 1012.5 |
| 20260906063729 | 67 | 58 | 0.0 | 0.0 | 0.00 | 0.62 | 0.00 | 95 | 1012.4 |
| 20260906063229 | 68 | 58 | 0.0 | 0.0 | 0.00 | 0.62 | 0.00 | 95 | 1012.4 |
| 20260906062730 | 68 | 58 | 0.0 | 0.0 | 0.00 | 0.62 | 0.00 | 95 | 1012.5 |
| 20260906062228 | 68 | 58 | 0.0 | 0.0 | 0.00 | 0.62 | 0.00 | 95 | 1012.5 |
| 20260906061729 | 68 | 58 | 0.0 | 0.0 | 0.00 | 0.62 | 0.00 | 95 | 1012.4 |
| 20260906061228 | 68 | 58 | 0.0 | 0.0 | 0.00 | 0.62 | 0.00 | 95 | 1012.4 |
| 20260906060729 | 68 | 58 | 0.0 | 0.0 | 0.00 | 0.62 | 0.00 | 95 | 1012.4 |
| 20260906060226 | 68 | 58 | 0.0 | 0.0 | 0.00 | 0.62 | 0.00 | 95 | 1012.3 |
| 20260906055724 | 68 | 58 | 0.0 | 0.0 | 0.00 | 0.62 | 0.00 | 95 | 1012.4 |
| 20260906055225 | 68 | 58 | 0.0 | 0.0 | 0.00 | 0.62 | 0.00 | 95 | 1012.3 |
| 20260906054724 | 69 | 58 | 0.0 | 0.0 | 0.00 | 0.62 | 0.00 | 95 | 1012.4 |
| 20260906054226 | 69 | 58 | 0.0 | 0.0 | 0.00 | 0.62 | 0.00 | 95 | 1012.4 |
| 20260906053947 | 69 | 58 | 0.0 | 0.0 | 0.00 | 0.62 | 0.00 | 95 | 1012.4 |
| 20260906053226 | 69 | 58 | 0.0 | 0.0 | 0.00 | 0.62 | 0.00 | 95 | 1012.4 |
| 20260906052725 | 69 | 58 | 0.0 | 0.0 | 0.00 | 0.62 | 0.00 | 95 | 1012.4 |
| 20260906052450 | 69 | 58 | 0.0 | 0.0 | 0.00 | 0.62 | 0.00 | 95 | 1012.5 |
| 20260906051724 | 69 | 58 | 0.0 | 0.0 | 0.00 | 0.62 | 0.00 | 95 | 1012.5 |
| 20260906051226 | 69 | 58 | 0.0 | 0.0 | 0.00 | 0.62 | 0.00 | 95 | 1012.6 |
| 20260906050724 | 69 | 58 | 0.0 | 0.0 | 0.00 | 0.62 | 0.00 | 95 | 1012.6 |
| 20260906050225 | 69 | 58 | 0.0 | 0.0 | 0.00 | 0.62 | 0.00 | 95 | 1012.6 |
| 20260906045726 | 69 | 58 | 0.0 | 0.0 | 0.00 | 0.62 | 0.00 | 95 | 1012.6 |
| 20260906045223 | 69 | 58 | 0.0 | 0.0 | 0.00 | 0.62 | 0.00 | 94 | 1012.5 |
| 20260906044720 | 69 | 58 | 0.0 | 0.0 | 0.00 | 0.62 | 0.00 | 94 | 1012.5 |
| 20260906044219 | 69 | 58 | 0.0 | 0.0 | 0.00 | 0.62 | 0.00 | 94 | 1012.5 |
| 20260906043718 | 69 | 58 | 0.0 | 0.0 | 0.00 | 0.62 | 0.00 | 95 | 1012.5 |
| 20260906043217 | 70 | 58 | 0.0 | 0.0 | 0.00 | 0.62 | 0.00 | 95 | 1012.5 |
| 20260906042713 | 70 | 58 | 0.0 | 0.0 | 0.00 | 0.62 | 0.00 | 95 | 1012.7 |
| 20260906042213 | 70 | 58 | 0.0 | 0.0 | 0.00 | 0.62 | 0.00 | 95 | 1012.9 |
| 20260906041713 | 70 | 58 | 0.0 | 0.0 | 0.00 | 0.62 | 0.00 | 95 | 1012.8 |
| 20260906041211 | 70 | 58 | 0.0 | 0.0 | 0.00 | 0.62 | 0.00 | 94 | 1012.9 |
| 20260906040933 | 70 | 58 | 0.0 | 0.0 | 0.00 | 0.62 | 0.00 | 94 | 1012.9 |
| 20260906040209 | 70 | 58 | 0.0 | 0.0 | 0.00 | 0.62 | 0.00 | 94 | 1012.9 |
| 20260906035708 | 70 | 58 | 0.0 | 0.0 | 0.00 | 0.62 | 0.62 | 94 | 1012.8 |
| 20260906035205 | 70 | 58 | 0.0 | 0.0 | 0.00 | 0.62 | 0.62 | 94 | 1012.9 |
| 20260906034703 | 70 | 58 | 0.0 | 0.0 | 0.00 | 0.62 | 0.62 | 94 | 1013.0 |
| 20260906034207 | 70 | 58 | 0.0 | 0.0 | 0.00 | 0.62 | 0.62 | 94 | 1013.0 |
| 20260906033703 | 70 | 58 | 0.0 | 0.0 | 0.00 | 0.62 | 0.62 | 94 | 1012.9 |
| 20260906033203 | 70 | 58 | 0.0 | 0.0 | 0.00 | 0.62 | 0.62 | 94 | 1012.7 |
| 20260906032703 | 70 | 58 | 0.0 | 0.0 | 0.00 | 0.62 | 0.62 | 94 | 1012.6 |
| 20260906032205 | 70 | 58 | 0.0 | 0.0 | 0.01 | 0.62 | 0.62 | 94 | 1012.8 |
| 20260906031931 | 71 | 58 | 0.0 | 0.0 | 0.01 | 0.62 | 0.62 | 94 | 1012.8 |
| 20260906031204 | 71 | 58 | 0.0 | 0.0 | 0.01 | 0.62 | 0.62 | 94 | 1012.8 |
| 20260906030703 | 71 | 58 | 0.0 | 0.0 | 0.01 | 0.62 | 0.62 | 94 | 1012.8 |
| 20260906030202 | 71 | 58 | 0.0 | 0.0 | 0.01 | 0.62 | 0.62 | 94 | 1012.6 |
| 20260906025703 | 71 | 58 | 0.0 | 0.0 | 0.02 | 0.62 | 0.62 | 94 | 1012.6 |
| 20260906025203 | 71 | 58 | 0.0 | 0.0 | 0.02 | 0.62 | 0.62 | 94 | 1012.5 |
| 20260906024703 | 71 | 58 | 0.0 | 0.0 | 0.02 | 0.62 | 0.62 | 94 | 1012.6 |
| 20260906024201 | 71 | 58 | 0.0 | 0.0 | 0.03 | 0.62 | 0.62 | 94 | 1012.5 |
| 20260906023700 | 71 | 58 | 0.0 | 0.0 | 0.03 | 0.62 | 0.62 | 94 | 1012.5 |
| 20260906023156 | 71 | 58 | 0.0 | 0.0 | 0.04 | 0.62 | 0.62 | 94 | 1012.5 |
| 20260906022655 | 71 | 58 | 0.0 | 0.0 | 0.04 | 0.62 | 0.62 | 94 | 1012.4 |
| 20260906022155 | 71 | 58 | 0.0 | 0.0 | 0.04 | 0.61 | 0.61 | 94 | 1012.4 |
| 20260906021920 | 71 | 58 | 0.0 | 0.0 | 0.05 | 0.61 | 0.61 | 94 | 1012.5 |
| 20260906021150 | 72 | 58 | 0.0 | 0.0 | 0.05 | 0.61 | 0.61 | 94 | 1012.6 |
| 20260906020907 | 72 | 58 | 0.0 | 0.0 | 0.06 | 0.61 | 0.61 | 94 | 1012.6 |
| 20260906020149 | 72 | 58 | 0.0 | 0.0 | 0.07 | 0.61 | 0.61 | 94 | 1012.6 |
| 20260906015642 | 72 | 58 | 0.0 | 0.0 | 0.06 | 0.60 | 0.60 | 94 | 1012.4 |
| 20260906015405 | 72 | 58 | 0.0 | 0.0 | 0.07 | 0.60 | 0.60 | 94 | 1012.4 |
| 20260906014631 | 72 | 58 | 0.0 | 0.0 | 0.08 | 0.60 | 0.60 | 94 | 1012.4 |
| 20260906014126 | 72 | 58 | 0.0 | 0.0 | 0.08 | 0.59 | 0.59 | 94 | 1012.3 |
| 20260906013619 | 73 | 58 | 0.0 | 0.0 | 0.09 | 0.59 | 0.59 | 94 | 1012.3 |
| 20260906013113 | 73 | 58 | 0.0 | 1.0 | 0.09 | 0.58 | 0.58 | 94 | 1012.2 |
| 20260906012612 | 73 | 58 | 0.0 | 2.0 | 0.09 | 0.57 | 0.58 | 94 | 1012.2 |
| 20260906012315 | 73 | 58 | 0.0 | 2.0 | 0.10 | 0.57 | 0.57 | 94 | 1012.2 |
| 20260906011551 | 73 | 42 | 0.0 | 2.0 | 0.10 | 0.56 | 0.56 | 94 | 1012.1 |
| 20260906011045 | 73 | 62 | 0.0 | 2.0 | 0.10 | 0.55 | 0.56 | 94 | 1012.0 |
| 20260906010540 | 73 | 355 | 0.0 | 1.0 | 0.11 | 0.55 | 0.55 | 94 | 1011.8 |
| 20260906010235 | 73 | 355 | 0.0 | 1.0 | 0.11 | 0.53 | 0.53 | 94 | 1011.6 |
| 20260906010120 | 73 | 355 | 0.0 | 1.0 | 0.11 | 0.54 | 0.54 | 94 | 1011.7 |
| 20260906005021 | 73 | 355 | 0.0 | 1.0 | 0.12 | 0.53 | 0.53 | 94 | 1011.5 |
| 20260906004515 | 73 | 55 | 0.0 | 1.0 | 0.12 | 0.52 | 0.52 | 93 | 1011.5 |
| 20260906004010 | 73 | 55 | 0.0 | 1.0 | 0.13 | 0.51 | 0.51 | 93 | 1011.5 |
| 20260906003504 | 73 | 55 | 0.0 | 1.0 | 0.12 | 0.50 | 0.50 | 93 | 1011.4 |
| 20260906002957 | 73 | 69 | 0.0 | 2.0 | 0.13 | 0.49 | 0.49 | 93 | 1011.5 |
| 20260906002759 | 73 | 69 | 0.0 | 2.0 | 0.13 | 0.48 | 0.48 | 93 | 1011.5 |
| 20260906002724 | 74 | 157 | 0.0 | 0.0 | 0.13 | 0.47 | 0.47 | 93 | 1011.4 |
| 20260906001440 | 74 | 157 | 0.0 | 0.0 | 0.13 | 0.46 | 0.46 | 93 | 1011.4 |
| 20260906000933 | 74 | 157 | 0.0 | 0.0 | 0.13 | 0.45 | 0.45 | 93 | 1011.3 |
| 20260906000433 | 74 | 157 | 0.0 | 0.0 | 0.14 | 0.44 | 0.44 | 93 | 1011.3 |
| 20260905235922 | 74 | 157 | 0.0 | 0.0 | 0.14 | 0.43 | 0.43 | 93 | 1011.3 |
| 20260905235634 | 74 | 157 | 0.0 | 0.0 | 0.13 | 0.41 | 0.42 | 93 | 1011.3 |
| 20260905234908 | 74 | 157 | 0.0 | 0.0 | 0.13 | 0.40 | 0.41 | 93 | 1011.3 |
| 20260905234404 | 74 | 157 | 0.0 | 0.0 | 0.15 | 0.40 | 0.40 | 93 | 1011.3 |
| 20260905233858 | 74 | 157 | 0.0 | 0.0 | 0.14 | 0.38 | 0.38 | 93 | 1011.3 |
| 20260905233351 | 74 | 157 | 0.0 | 0.0 | 0.14 | 0.37 | 0.37 | 93 | 1011.3 |
| 20260905232845 | 74 | 157 | 0.0 | 0.0 | 0.15 | 0.36 | 0.36 | 93 | 1011.3 |
| 20260905232340 | 74 | 157 | 0.0 | 0.0 | 0.15 | 0.35 | 0.35 | 93 | 1011.3 |
| 20260905231834 | 74 | 157 | 0.0 | 0.0 | 0.16 | 0.34 | 0.34 | 92 | 1011.3 |
| 20260905231327 | 75 | 157 | 0.0 | 0.0 | 0.15 | 0.32 | 0.33 | 92 | 1011.2 |
| 20260905230821 | 75 | 157 | 0.0 | 1.0 | 0.16 | 0.31 | 0.31 | 92 | 1011.3 |
| 20260905230316 | 75 | 157 | 0.0 | 1.0 | 0.16 | 0.30 | 0.30 | 92 | 1011.3 |
| 20260905225809 | 75 | 157 | 0.0 | 0.0 | 0.17 | 0.29 | 0.29 | 91 | 1011.1 |
| 20260905225307 | 75 | 157 | 0.0 | 1.0 | 0.16 | 0.27 | 0.28 | 91 | 1011.1 |
| 20260905224753 | 75 | 157 | 0.0 | 1.0 | 0.16 | 0.26 | 0.26 | 91 | 1011.2 |
| 20260905224507 | 75 | 157 | 0.0 | 0.0 | 0.15 | 0.25 | 0.25 | 90 | 1011.2 |
| 20260905223741 | 75 | 157 | 0.0 | 0.0 | 0.14 | 0.24 | 0.24 | 90 | 1011.3 |
| 20260905223235 | 75 | 157 | 0.0 | 0.0 | 0.12 | 0.22 | 0.22 | 89 | 1011.2 |
| 20260905222729 | 75 | 157 | 0.0 | 0.0 | 0.11 | 0.21 | 0.21 | 88 | 1011.2 |
| 20260905222223 | 76 | 157 | 0.0 | 0.0 | 0.10 | 0.20 | 0.20 | 88 | 1011.2 |
| 20260905221718 | 76 | 157 | 0.0 | 0.0 | 0.08 | 0.18 | 0.18 | 87 | 1011.2 |
| 20260905221213 | 76 | 157 | 0.0 | 1.0 | 0.06 | 0.16 | 0.17 | 86 | 1011.0 |
| 20260905220706 | 76 | 157 | 0.0 | 1.0 | 0.05 | 0.15 | 0.15 | 86 | 1011.1 |
| 20260905220159 | 77 | 157 | 0.0 | 0.0 | 0.03 | 0.13 | 0.14 | 85 | 1011.3 |
| 20260905215653 | 78 | 215 | 1.0 | 4.0 | 0.02 | 0.12 | 0.12 | 84 | 1011.2 |
| 20260905215147 | 78 | 126 | 1.0 | 4.0 | 0.01 | 0.11 | 0.11 | 85 | 1011.3 |
| 20260905214642 | 78 | 159 | 0.0 | 2.0 | 0.00 | 0.10 | 0.10 | 84 | 1010.9 |